GFSNIL_prec_snow_201.txt.gz
Snowfall_Accumulation
0.0 0.0 0.0 0.0 0.0 0.0 0.0 0.0 0.0 0.0 0.0 0.0 0.0 0.0 0.0 0.0 0.0 0.0 0.0 0.0 0.0 2.0
0.0 0.0 0.0 0.0 0.0 0.0 0.1 0.0 0.0 0.0 0.0 0.0 0.0 0.0 0.0 0.0 0.0 0.0 0.0 0.0 0.0 0.0
0.0 0.0 0.0 0.0 0.0 0.0 0.0 0.1 0.1 0.0 0.0 0.0 0.0 0.0 0.0 0.0 0.0 0.0 0.0 0.0 0.0 0.0
0.2 0.0 0.0 0.0 0.0 0.0 0.0 0.0 0.0 0.0 0.0 0.0 0.0 0.0 0.0 0.0 0.0 0.0 0.0 0.0 0.0 0.0
2.9 1.6 1.7 1.6 0.3 0.1 0.0 0.3 0.1 0.0 0.0 0.0 0.0 0.0 0.0 0.0 0.0 0.0 0.1 0.0 0.1 0.1
2.8 1.7 1.7 2.4 2.9 0.0 1.0 0.0 1.3 0.6 0.4 0.3 0.4 0.1 0.0 0.0 0.0 0.1 0.2 0.2 0.3 0.2
5.0 3.4 2.2 1.9 2.3 1.6 3.0 3.1 3.9 3.7 2.3 2.2 1.0 0.8 0.1 0.1 0.1 0.1 0.2 0.2 0.3 0.4
4.3 5.8 3.7 2.8 3.4 4.2 3.7 3.1 2.9 2.5 2.4 3.8 3.5 3.3 2.3 1.4 1.3 1.6 0.7 0.7 0.5 0.8
0.8 2.7 3.1 1.7 1.9 1.7 1.6 2.1 3.2 3.8 2.8 6.0 6.2 5.0 4.6 3.1 2.6 2.0 1.9 2.0 1.6 1.3
0.0 0.0 0.0 0.7 1.0 0.0 0.4 0.8 5.2 6.9 8.0 2.9 5.5 5.1 5.0 5.5 3.7 3.1 2.8 2.8 2.3 2.1
0.2 0.0 0.0 0.0 0.0 0.0 0.0 0.0 0.0 0.6 0.1 1.4 2.0 3.1 8.2 4.3 10.1 6.3 4.0 3.0 3.0 3.1
0.1 0.0 0.0 0.0 0.0 0.0 0.9 0.0 0.9 0.4 0.2 0.1 0.6 0.2 0.1 1.1 2.1 1.4 2.2 3.9 3.6 3.1
0.1 0.0 0.0 0.0 0.0 0.5 0.4 0.8 2.7 2.0 0.2 0.0 0.2 0.2 0.2 0.1 0.2 0.3 1.1 1.5 1.7 3.2
0.0 0.2 0.0 0.0 0.0 0.3 1.0 1.1 1.8 1.1 0.3 0.1 0.1 0.1 0.0 0.0 0.1 0.8 0.9 0.6 0.8 1.0

GFSNIL_prec_snow_204.txt.gz
Snowfall_Accumulation
0.0 0.0 0.0 0.0 0.0 0.0 0.0 0.0 0.0 0.0 0.0 0.0 0.0 0.0 0.0 0.0 0.0 0.0 0.0 0.0 0.0 2.0
0.0 0.0 0.0 0.0 0.0 0.0 0.1 0.0 0.0 0.0 0.0 0.0 0.0 0.0 0.0 0.0 0.0 0.0 0.0 0.0 0.0 0.0
0.0 0.0 0.0 0.0 0.0 0.0 0.0 0.1 0.1 0.0 0.0 0.0 0.0 0.0 0.0 0.0 0.0 0.0 0.0 0.0 0.0 0.0
0.2 0.0 0.0 0.0 0.0 0.0 0.0 0.0 0.0 0.0 0.0 0.0 0.0 0.0 0.0 0.0 0.0 0.0 0.0 0.0 0.0 0.0
2.9 1.6 1.7 1.6 0.3 0.1 0.0 0.3 0.1 0.0 0.0 0.0 0.0 0.0 0.0 0.0 0.0 0.0 0.1 0.0 0.1 0.1
2.8 1.7 1.7 2.4 2.9 0.0 1.0 0.0 1.3 0.6 0.4 0.3 0.4 0.1 0.0 0.0 0.0 0.1 0.2 0.2 0.3 0.2
5.0 3.4 2.2 1.9 2.3 1.6 3.0 3.1 3.9 3.7 2.3 2.2 1.0 0.8 0.1 0.1 0.1 0.1 0.2 0.2 0.3 0.4
4.3 5.8 3.7 2.8 3.4 4.2 3.7 3.1 2.9 2.5 2.4 3.8 3.5 3.3 2.3 1.4 1.3 1.6 0.7 0.7 0.5 0.8
0.8 2.7 3.1 1.7 1.9 1.7 1.6 2.1 3.2 3.8 2.8 6.0 6.2 5.0 4.6 3.1 2.6 2.0 1.9 2.0 1.6 1.3
0.0 0.0 0.0 0.7 1.0 0.0 0.4 0.8 5.2 6.9 8.0 2.9 5.5 5.1 5.0 5.5 3.7 3.6 3.1 2.8 2.3 2.1
0.2 0.0 0.0 0.0 0.0 0.0 0.0 0.0 0.0 0.6 0.1 1.4 2.0 3.1 8.2 4.3 10.1 6.4 4.2 3.1 3.0 3.1
0.1 0.0 0.0 0.0 0.0 0.0 0.9 0.0 0.9 0.4 0.2 0.1 0.6 0.2 0.1 1.1 2.1 1.4 2.2 3.9 3.6 3.1
0.1 0.0 0.0 0.0 0.0 0.5 0.4 0.8 2.7 4.4 0.2 1.0 0.4 0.2 0.2 0.1 0.2 0.3 1.1 1.5 1.7 3.2
0.0 0.2 0.0 0.0 0.0 0.3 1.0 2.1 2.6 2.0 0.9 0.3 0.1 0.1 0.0 0.0 0.1 0.8 0.9 0.6 0.8 1.0

GFSNIL_prec_snow_207.txt.gz
Snowfall_Accumulation
0.0 0.0 0.0 0.0 0.0 0.0 0.0 0.0 0.0 0.0 0.0 0.0 0.0 0.0 0.0 0.0 0.0 0.0 0.0 0.0 0.0 2.0
0.0 0.0 0.0 0.0 0.0 0.0 0.1 0.0 0.0 0.0 0.0 0.0 0.0 0.0 0.0 0.0 0.0 0.0 0.0 0.0 0.0 0.0
0.0 0.0 0.0 0.0 0.0 0.0 0.0 0.1 0.1 0.0 0.0 0.0 0.0 0.0 0.0 0.0 0.0 0.0 0.0 0.0 0.0 0.0
0.2 0.0 0.0 0.0 0.0 0.0 0.0 0.0 0.0 0.0 0.0 0.0 0.0 0.0 0.0 0.0 0.0 0.0 0.0 0.0 0.0 0.0
2.9 1.6 1.7 1.6 0.3 0.1 0.0 0.3 0.1 0.0 0.0 0.0 0.0 0.0 0.0 0.0 0.0 0.0 0.1 0.0 0.1 0.1
2.8 1.7 1.7 2.4 2.9 0.0 1.0 0.0 1.3 0.6 0.4 0.3 0.4 0.1 0.0 0.0 0.0 0.1 0.2 0.2 0.3 0.2
5.0 3.4 2.2 1.9 2.3 1.6 3.0 3.1 3.9 3.7 2.3 2.2 1.0 0.8 0.1 0.1 0.1 0.1 0.2 0.2 0.3 0.4
4.3 5.8 3.7 2.8 3.4 4.2 3.7 3.1 2.9 2.5 2.4 3.8 3.5 3.3 2.3 1.4 1.3 1.6 0.7 0.7 0.5 0.8
0.8 2.7 3.1 1.7 1.9 1.7 1.6 2.1 3.2 3.8 2.8 6.0 6.2 5.0 4.6 3.1 2.6 2.0 1.9 2.0 1.6 1.3
0.0 0.0 0.0 0.7 1.0 0.0 0.4 0.8 5.2 6.9 8.0 2.9 5.5 5.1 5.0 5.5 3.7 3.6 3.1 2.8 2.3 2.1
0.2 0.0 0.0 0.0 0.0 0.0 0.0 0.0 0.0 0.6 0.1 1.4 2.0 3.1 8.2 4.3 10.1 6.4 4.2 3.1 3.0 3.1
0.1 0.0 0.0 0.0 0.0 0.0 0.9 0.0 0.9 0.4 0.2 0.1 0.6 0.2 0.1 1.1 2.1 1.4 2.2 3.9 3.6 3.1
0.1 0.0 0.0 0.0 0.0 0.5 0.4 0.8 2.7 4.4 0.2 1.0 2.4 1.1 0.2 0.1 0.2 0.3 1.1 1.5 1.7 3.2
0.0 0.2 0.0 0.0 0.0 0.3 1.0 2.1 4.2 3.8 0.9 0.3 0.1 0.7 0.1 0.0 0.1 0.8 0.9 0.6 0.8 1.0

GFSNIL_prec_snow_213.txt.gz
Snowfall_Accumulation
0.0 0.0 0.0 0.0 0.0 0.0 0.0 0.0 0.0 0.0 0.0 0.0 0.0 0.0 0.0 0.0 0.0 0.0 0.0 0.0 0.0 2.0
0.0 0.0 0.0 0.0 0.0 0.0 0.1 0.0 0.0 0.0 0.0 0.0 0.0 0.0 0.0 0.0 0.0 0.0 0.0 0.0 0.0 0.0
0.0 0.0 0.0 0.0 0.0 0.0 0.0 0.1 0.1 0.0 0.0 0.0 0.0 0.0 0.0 0.0 0.0 0.0 0.0 0.0 0.0 0.0
0.2 0.0 0.0 0.0 0.0 0.0 0.0 0.0 0.0 0.0 0.0 0.0 0.0 0.0 0.0 0.0 0.0 0.0 0.0 0.0 0.0 0.0
2.9 1.6 1.7 1.6 0.3 0.1 0.0 0.3 0.1 0.0 0.0 0.0 0.0 0.0 0.0 0.0 0.0 0.0 0.1 0.0 0.1 0.1
2.8 1.7 1.7 2.4 2.9 0.0 1.0 0.0 1.3 0.6 0.4 0.3 0.4 0.1 0.0 0.0 0.0 0.1 0.2 0.2 0.3 0.2
5.0 3.4 2.2 1.9 2.3 1.6 3.0 3.1 3.9 3.7 2.3 2.2 1.0 0.8 0.1 0.1 0.1 0.1 0.2 0.2 0.3 0.4
4.3 5.8 3.7 2.8 3.4 4.2 3.7 3.1 2.9 2.5 2.4 3.8 3.5 3.3 2.3 1.4 1.3 1.6 0.7 0.7 0.5 0.8
0.8 2.7 3.1 1.7 1.9 1.7 1.6 2.1 3.2 3.8 2.8 6.0 6.2 5.0 4.6 3.1 2.6 2.0 1.9 2.0 1.6 1.3
0.0 0.0 0.0 0.7 1.0 0.0 0.4 0.8 5.2 6.9 8.0 2.9 5.5 5.1 5.0 5.5 3.7 3.6 3.1 2.8 2.3 2.1
0.2 0.0 0.0 0.0 0.0 0.0 0.0 0.0 0.0 0.6 0.1 1.4 2.0 3.1 8.2 4.3 10.1 6.4 4.2 3.1 3.0 3.1
0.1 0.0 0.0 0.0 0.0 0.0 0.9 0.0 0.9 0.4 0.2 0.1 0.6 0.2 0.1 1.1 2.1 1.4 2.2 3.9 3.6 3.1
0.1 0.0 0.0 0.0 0.0 0.5 0.4 0.8 2.7 4.4 0.2 1.0 2.4 1.1 0.2 0.1 0.2 0.6 1.1 1.5 1.7 3.2
0.0 0.2 0.0 0.0 0.0 0.3 1.0 2.1 4.2 3.8 0.9 1.7 2.3 3.1 2.4 0.0 0.1 1.5 1.1 0.6 0.8 1.0

GFSNIL_prec_snow_216.txt.gz
Snowfall_Accumulation
0.0 0.0 0.0 0.0 0.0 0.0 0.0 0.0 0.0 0.0 0.0 0.0 0.0 0.0 0.0 0.0 0.0 0.0 0.0 0.0 0.0 2.0
0.0 0.0 0.0 0.0 0.0 0.0 0.1 0.0 0.0 0.0 0.0 0.0 0.0 0.0 0.0 0.0 0.0 0.0 0.0 0.0 0.0 0.0
0.0 0.0 0.0 0.0 0.0 0.0 0.0 0.1 0.1 0.0 0.0 0.0 0.0 0.0 0.0 0.0 0.0 0.0 0.0 0.0 0.0 0.0
0.2 0.0 0.0 0.0 0.0 0.0 0.0 0.0 0.0 0.0 0.0 0.0 0.0 0.0 0.0 0.0 0.0 0.0 0.0 0.0 0.0 0.0
2.9 1.6 1.7 1.6 0.3 0.1 0.0 0.3 0.1 0.0 0.0 0.0 0.0 0.0 0.0 0.0 0.0 0.0 0.1 0.0 0.1 0.1
2.8 1.7 1.7 2.4 2.9 0.0 1.0 0.0 1.3 0.6 0.4 0.3 0.4 0.1 0.0 0.0 0.0 0.1 0.2 0.2 0.3 0.2
5.0 3.4 2.2 1.9 2.3 1.6 3.0 3.1 3.9 3.7 2.3 2.2 1.0 0.8 0.1 0.1 0.1 0.1 0.2 0.2 0.3 0.4
4.3 5.8 3.7 2.8 3.4 4.2 3.7 3.1 2.9 2.5 2.4 3.8 3.5 3.3 2.3 1.4 1.3 1.6 0.7 0.7 0.5 0.8
0.8 2.7 3.1 1.7 1.9 1.7 1.6 2.1 3.2 3.8 2.8 6.0 6.2 5.0 4.6 3.1 2.6 2.0 1.9 2.0 1.6 1.3
0.0 0.0 0.0 0.7 1.0 0.0 0.4 0.8 5.2 6.9 8.0 2.9 5.5 5.1 5.0 5.5 3.7 3.6 3.1 2.8 2.3 2.1
0.2 0.0 0.0 0.0 0.0 0.0 0.0 0.0 0.0 0.6 0.1 1.4 2.0 3.1 8.2 4.3 10.1 6.4 4.2 3.1 3.0 3.1
0.1 0.0 0.0 0.0 0.0 0.0 0.9 0.0 0.9 0.4 0.2 0.1 0.6 0.2 0.1 1.1 2.1 1.4 2.2 3.9 3.6 3.1
0.1 0.0 0.0 0.0 0.0 0.5 0.4 0.8 2.7 4.4 0.2 1.0 2.4 1.1 0.2 0.1 0.2 0.6 1.1 1.5 1.7 3.2
0.0 0.2 0.0 0.0 0.0 0.3 1.0 2.1 4.2 3.8 0.9 1.7 2.3 3.1 2.4 0.0 0.1 1.5 1.7 0.6 0.8 1.0